ECMWFNIL_850_rhum_021.txt.gz
RH
53 51 49 48 47 47 46 44 42 43 42 41 43 45 46 47 49 51 52 54 54 55 60 67 73 77 78 76 74 70 68 67 64 59 53 50 47 45 42 38 35 36
54 55 55 54 54 53 51 49 47 47 45 43 45 46 47 49 51 53 55 56 56 56 59 65 69 74 77 77 76 74 70 67 63 56 50 45 41 38 35 30 26 25
54 55 55 55 54 55 56 56 53 50 48 47 47 47 48 50 52 54 56 56 57 57 59 63 66 70 75 76 77 77 72 67 62 54 48 41 35 33 31 28 24 20
51 52 53 54 54 55 58 60 56 52 51 49 47 48 48 49 51 54 56 57 57 56 58 61 63 66 71 74 76 77 72 66 62 55 48 41 32 30 31 28 24 19
46 49 50 52 54 55 57 59 58 55 52 50 48 48 48 47 49 53 55 57 56 55 57 61 62 62 66 71 74 75 70 64 60 54 49 42 32 28 28 27 24 19
45 48 50 51 52 53 54 56 57 56 54 52 50 50 50 49 49 50 53 55 55 53 55 59 61 60 62 67 71 71 67 62 58 53 50 45 37 31 27 26 24 20
41 45 48 51 53 54 54 54 54 53 53 53 53 52 52 52 51 49 50 53 55 54 53 56 58 57 58 63 65 66 64 61 58 54 51 47 42 36 30 26 24 20
38 41 44 48 53 55 55 55 54 53 53 54 55 54 55 55 53 51 49 50 54 55 53 54 56 55 57 60 61 62 62 59 56 54 52 48 44 38 31 28 25 21
43 44 43 45 49 52 53 55 55 54 54 54 54 55 56 56 54 52 50 49 51 54 53 54 54 55 56 58 59 59 59 57 53 53 52 48 43 37 32 30 26 22
46 47 47 48 51 53 55 57 56 55 54 53 54 56 55 54 54 55 53 50 50 52 53 53 54 54 54 56 57 57 57 56 52 51 51 49 44 39 34 30 26 22
44 46 49 50 52 55 55 55 55 55 54 53 55 55 54 55 56 56 56 53 49 49 51 52 53 53 53 54 56 55 54 54 54 51 50 49 47 43 39 33 25 21
40 44 46 47 50 52 52 51 52 54 54 52 53 54 55 55 56 56 55 52 49 47 48 50 50 51 52 53 55 54 52 52 54 54 52 50 49 47 45 39 29 22
38 39 40 41 44 45 45 46 48 51 52 51 50 53 55 55 57 57 54 51 50 47 45 47 48 49 50 51 54 54 51 50 52 54 55 53 50 48 48 46 39 30
37 37 37 38 40 39 39 41 44 48 50 49 49 52 54 55 56 57 54 52 52 49 46 45 46 47 48 49 52 53 52 51 51 52 54 54 52 49 48 48 47 42
38 39 38 38 40 40 39 40 42 45 47 48 49 50 52 54 56 57 57 55 54 52 49 46 44 44 44 46 49 52 53 53 51 50 50 52 53 51 48 48 50 51
41 41 40 41 43 43 41 40 42 44 45 46 47 49 51 54 56 58 59 59 57 53 51 48 44 40 39 43 47 49 51 53 52 50 49 51 53 52 50 49 50 54
43 44 44 43 45 45 43 42 43 44 43 44 46 48 51 53 55 58 59 60 58 54 50 48 43 38 37 40 44 47 51 52 53 53 51 50 53 54 53 50 51 55
46 46 44 43 44 45 45 45 45 44 44 45 47 48 50 52 54 57 59 60 59 54 49 46 41 36 35 38 41 45 49 52 54 56 56 53 53 54 54 52 52 54
48 47 45 45 45 46 48 48 46 45 44 45 47 47 49 52 54 56 58 59 60 56 49 43 39 35 35 38 40 42 47 50 53 56 58 58 56 56 56 54 54 55
47 46 44 44 44 46 49 48 46 44 43 46 49 49 50 52 53 55 57 57 58 57 49 42 39 35 34 38 40 42 46 50 52 55 57 60 62 61 59 57 56 56
47 46 45 44 45 48 50 49 47 46 45 48 50 50 52 56 55 54 56 57 58 56 52 49 46 38 34 37 40 43 47 52 56 56 56 60 63 63 63 61 58 57
46 47 48 48 49 51 53 52 50 49 48 49 50 50 54 62 64 57 54 56 57 56 55 57 56 44 33 35 39 43 51 59 64 63 59 59 62 63 66 66 62 60
46 47 49 51 52 53 53 52 51 51 51 51 51 51 52 59 65 63 63 63 60 57 56 59 62 51 38 38 42 45 53 61 67 71 67 62 63 64 66 68 65 61
42 44 47 51 52 51 50 50 50 50 50 50 52 53 54 57 62 71 82 79 65 59 58 58 62 58 49 48 51 52 57 63 69 76 74 67 66 68 69 70 68 65
40 42 46 48 49 49 50 52 53 52 53 54 55 56 58 61 66 79 91 85 73 73 70 60 60 63 58 58 61 61 63 68 75 80 77 72 71 73 74 73 70 69
42 44 45 45 46 48 51 55 55 56 58 58 58 61 64 68 77 84 85 80 80 89 84 66 60 66 64 60 63 66 68 72 78 81 78 73 74 77 79 74 69 71

ECMWFNIL_850_rhum_024.txt.gz
RH
45 46 47 49 46 43 42 41 40 40 40 40 40 39 39 40 42 43 43 43 49 56 56 56 59 63 69 69 68 72 76 73 67 72 89 93 81 70 63 58 63 69
42 42 47 50 45 41 41 39 39 39 38 38 39 38 37 39 40 41 43 43 48 55 57 56 58 63 70 71 68 69 74 74 69 73 85 80 65 58 54 50 52 53
40 41 46 46 41 39 40 40 40 39 38 37 37 38 38 38 39 40 42 44 47 52 56 57 57 61 69 70 64 65 71 72 69 73 79 69 56 49 45 47 53 49
37 41 43 39 38 42 43 44 43 40 39 39 39 40 41 40 40 40 42 44 47 50 54 57 56 59 66 68 63 61 66 69 67 72 78 70 57 46 37 40 54 59
31 36 38 34 37 43 46 47 46 43 42 42 42 42 41 42 41 42 43 45 47 50 53 56 56 57 60 63 62 61 62 64 63 66 76 78 66 50 36 30 38 49
28 30 32 32 35 41 46 48 48 48 46 46 47 45 42 42 41 43 45 46 47 49 52 54 54 53 55 58 62 62 60 59 57 60 73 82 75 57 41 32 29 33
25 27 28 30 33 37 41 44 46 48 48 48 49 47 45 43 41 42 45 46 47 48 51 52 51 49 50 54 60 61 59 56 55 60 68 78 82 65 45 38 33 30
22 24 25 26 30 33 36 39 41 44 45 47 49 47 44 44 43 42 44 46 48 48 49 50 50 48 48 51 57 59 58 55 53 55 56 65 76 65 47 44 39 32
20 21 22 23 26 28 30 32 35 38 40 42 45 44 43 43 44 46 46 47 49 49 48 48 49 49 47 49 54 56 59 57 52 50 49 54 62 55 46 48 44 35
20 21 22 22 23 24 25 27 30 33 34 34 38 41 42 41 43 47 49 49 49 50 50 47 47 49 48 49 51 53 57 59 55 49 47 49 52 49 47 49 46 39
21 22 23 22 21 22 23 25 28 32 32 30 32 36 40 42 42 45 50 51 49 49 49 47 44 46 48 49 49 50 53 59 58 51 47 47 48 48 48 48 47 42
25 25 25 25 24 24 27 29 31 33 34 32 31 33 39 43 43 43 46 49 50 50 50 48 44 43 45 48 49 49 50 55 59 55 48 46 47 47 47 46 46 43
26 26 27 28 29 29 32 34 33 34 36 38 37 35 37 42 44 42 42 45 49 51 52 51 47 43 42 44 47 50 49 51 57 57 51 46 46 46 45 45 44 43
24 26 26 28 30 32 34 36 36 36 38 45 47 41 37 39 43 43 41 43 47 51 53 54 52 46 42 41 43 47 49 50 53 58 55 48 44 45 45 44 43 43
31 31 28 29 31 33 34 35 37 39 41 47 50 45 40 41 44 45 44 44 46 49 52 54 55 52 44 39 39 42 46 49 52 56 58 53 46 44 46 45 43 42
37 34 31 30 30 31 33 34 37 41 43 46 49 47 43 43 46 48 48 46 46 48 52 54 55 54 47 38 35 38 42 46 50 53 57 57 51 46 45 46 46 44
38 34 33 31 30 31 34 35 38 42 46 49 51 51 48 45 47 50 50 51 52 49 50 53 54 52 48 40 33 34 39 42 45 50 54 57 56 50 46 46 47 48
36 34 33 32 32 35 38 40 41 44 49 52 52 53 51 47 48 50 51 54 58 57 53 52 54 52 49 42 32 30 36 39 42 46 49 53 57 54 49 46 47 50
36 35 33 33 35 38 43 44 42 42 45 46 48 51 53 54 54 55 61 63 61 65 63 53 52 54 51 47 40 31 31 35 40 43 45 48 53 55 54 50 47 49
35 35 34 36 39 41 45 45 41 40 42 44 50 54 57 69 71 67 79 85 72 75 82 69 57 55 52 51 49 40 34 34 37 41 42 44 48 52 57 56 52 50
32 33 33 36 40 42 44 44 41 41 40 44 54 55 58 78 84 74 85 97 85 83 94 89 73 60 52 53 53 48 42 37 38 41 40 41 44 48 53 56 56 56
30 32 33 35 40 43 45 44 41 40 41 46 54 59 64 76 80 78 89 98 90 85 88 91 89 75 59 54 53 51 48 40 37 40 40 39 42 44 48 52 54 57
32 32 34 37 41 44 43 42 41 41 45 50 54 61 68 69 69 78 91 94 90 85 80 84 93 86 67 58 54 51 48 39 33 36 38 38 39 41 45 50 52 54
36 37 38 39 41 42 41 41 45 48 51 54 54 56 63 66 69 77 84 87 91 90 84 86 91 84 75 69 61 53 48 39 34 36 37 36 38 40 42 47 52 55
37 36 36 36 36 38 41 44 49 53 55 56 55 56 62 70 79 82 78 80 89 91 89 92 93 88 83 77 65 58 54 46 41 39 37 36 37 38 40 45 52 58
34 33 32 34 36 39 44 46 48 52 54 55 57 64 70 73 79 84 81 81 87 89 86 89 92 92 91 86 77 70 64 59 54 48 40 37 36 36 40 45 51 62

ECMWFNIL_850_rhum_030.txt.gz
RH
39 34 34 39 39 40 46 51 55 61 62 62 62 56 54 58 61 61 56 48 42 41 45 47 47 49 53 57 60 63 67 70 70 70 68 62 54 54 60 52 42 57
38 35 34 36 36 35 37 40 43 51 56 55 56 60 59 57 60 61 58 54 49 42 41 45 47 47 48 53 57 59 63 67 71 73 70 65 58 54 61 58 40 43
34 35 34 33 32 31 31 35 38 43 52 54 54 64 72 70 64 63 64 64 59 51 44 42 45 47 48 52 54 57 61 63 67 73 71 64 60 57 61 63 53 43
29 30 30 30 29 29 30 32 37 42 50 57 58 60 69 76 75 71 67 68 67 61 51 43 41 44 47 51 54 55 59 62 64 70 71 66 62 62 63 65 67 56
26 27 28 29 29 29 30 31 36 42 45 52 62 63 62 67 74 74 71 69 68 64 60 52 43 41 43 48 53 54 55 59 64 68 69 67 65 65 65 62 67 69
25 26 26 28 29 29 30 30 33 41 44 47 57 62 62 60 62 69 73 73 69 64 64 59 47 41 41 44 49 53 54 55 61 66 67 66 65 64 66 62 61 66
25 26 27 27 28 29 31 31 34 39 43 47 52 55 58 58 54 57 65 72 71 65 63 58 48 41 40 41 43 46 50 52 57 63 65 65 67 64 63 63 61 60
27 26 27 27 28 29 31 33 36 39 41 48 54 53 53 54 51 49 55 65 69 65 60 56 52 47 43 44 44 41 43 47 52 60 63 64 66 65 62 61 62 61
31 28 28 29 29 30 31 32 35 39 42 48 53 55 54 50 48 48 48 52 59 61 58 52 50 52 51 51 48 42 40 41 45 54 60 62 62 61 60 59 61 63
34 31 29 29 30 30 31 32 32 35 40 45 50 55 55 49 46 47 46 45 47 52 54 49 45 49 54 57 55 48 42 40 41 46 53 59 59 56 56 56 57 60
32 32 30 29 29 29 29 31 33 34 36 42 49 53 51 48 48 47 45 43 41 42 46 45 43 46 50 55 56 53 47 42 40 41 46 53 55 53 53 54 53 55
28 30 33 30 27 28 28 29 32 34 35 39 46 50 49 48 49 46 42 40 37 36 39 41 41 44 46 48 52 56 54 48 42 40 41 47 52 52 53 55 56 54
27 24 31 32 27 27 30 33 35 36 40 44 46 49 50 48 47 45 41 36 32 30 31 35 38 41 44 46 48 52 55 51 45 42 39 41 47 52 54 57 60 60
33 22 24 26 26 28 30 35 40 41 45 51 52 54 55 52 50 47 43 38 35 31 28 30 35 39 44 46 46 48 52 52 47 43 42 41 42 47 54 58 60 61
43 32 24 22 24 28 28 32 38 43 47 53 55 56 56 54 56 57 53 47 43 37 33 34 35 37 39 41 42 43 46 51 51 47 47 48 45 45 53 59 58 59
51 44 35 29 25 26 26 28 32 40 47 51 54 56 56 55 59 64 63 59 54 48 43 42 42 41 37 35 36 37 38 45 52 51 52 54 52 50 54 60 61 60
53 50 46 39 31 26 25 26 28 33 40 47 51 54 55 55 57 61 63 65 66 61 54 49 44 41 38 33 31 32 34 38 44 49 54 57 56 55 56 60 63 61
53 52 50 45 38 33 29 26 26 30 36 42 46 50 54 55 56 57 57 61 67 69 65 58 48 39 35 34 32 30 31 34 39 45 53 59 60 59 57 60 63 63
57 55 52 48 43 39 36 32 29 29 32 37 42 46 51 53 53 53 53 54 58 62 64 62 56 46 39 37 37 36 35 35 38 40 45 52 58 61 61 61 62 64
59 58 56 53 48 44 42 40 36 31 31 36 41 46 49 49 50 51 50 49 48 51 56 60 60 58 53 47 45 44 43 42 41 42 42 44 49 57 62 62 61 63
59 60 59 58 56 54 50 47 44 40 39 41 44 48 49 46 46 48 49 49 48 49 53 57 60 64 64 61 56 53 51 47 46 48 47 45 47 52 58 61 63 63
57 60 61 61 61 61 58 55 54 51 48 47 49 53 55 51 49 49 51 54 56 56 57 56 58 63 66 66 65 65 63 57 53 55 54 49 49 52 55 58 63 67
56 58 61 63 62 64 63 61 61 60 57 57 57 60 64 62 57 54 54 56 59 61 59 56 57 62 65 67 69 72 72 67 62 61 59 53 50 52 55 57 62 67
54 57 60 63 64 68 71 69 66 64 64 65 65 64 67 69 68 67 64 62 63 63 62 60 59 60 62 66 71 76 78 77 72 68 64 59 56 58 60 60 61 63
54 57 60 64 67 71 75 72 68 67 69 71 70 68 69 71 74 77 76 73 72 70 69 67 64 62 61 62 67 76 81 81 80 79 73 67 68 71 69 65 63 65
56 58 61 67 72 74 75 72 69 70 73 75 75 73 72 72 73 76 80 82 82 79 76 72 69 68 66 63 64 73 80 80 81 85 82 76 78 82 79 72 68 69

ECMWFNIL_850_rhum_036.txt.gz
RH
58 56 55 54 53 48 44 40 38 38 38 37 34 31 31 33 39 50 55 53 49 46 45 45 47 51 56 61 62 61 60 60 62 65 67 66 66 65 59 53 50 49
58 54 52 53 53 52 49 44 40 37 35 33 31 30 32 33 38 48 52 52 49 45 44 44 44 45 49 56 60 62 61 59 59 62 64 64 65 66 63 57 53 50
61 57 53 50 50 50 48 46 44 40 35 32 30 30 33 33 35 43 48 48 47 45 45 45 45 44 45 49 54 59 59 56 56 57 58 59 61 63 63 60 56 52
66 62 55 49 46 45 45 46 45 41 38 34 29 29 33 35 34 36 41 44 43 44 45 45 46 47 47 48 51 54 54 52 52 55 56 56 57 59 61 61 58 53
66 63 57 49 45 43 43 43 40 35 33 31 28 28 32 36 35 33 36 40 39 39 41 42 44 46 47 48 50 51 51 50 50 53 54 54 54 55 57 60 59 54
67 64 59 52 46 43 40 35 30 29 28 27 27 29 32 35 37 35 34 36 37 36 37 38 41 42 43 45 47 48 49 49 48 49 50 50 51 53 54 57 58 56
66 63 59 54 52 49 42 32 28 27 26 26 27 28 31 33 36 37 36 36 37 36 35 36 38 39 39 40 42 44 45 46 46 47 48 47 48 50 51 53 55 55
61 57 54 53 55 55 49 40 34 29 26 27 27 27 28 30 33 35 36 36 36 35 34 34 36 37 37 38 39 39 40 42 43 44 45 46 47 47 47 49 51 52
59 54 51 53 58 58 54 48 40 34 31 29 28 27 27 29 31 32 32 33 33 33 33 32 33 34 35 37 37 36 36 37 38 39 40 42 43 42 43 45 48 49
61 55 52 55 58 57 54 50 45 40 37 33 30 29 28 28 30 30 30 30 31 31 31 31 31 32 34 36 37 37 36 35 35 35 36 37 38 38 40 42 45 46
61 56 53 52 53 52 50 47 46 43 40 37 33 31 29 29 30 30 29 29 29 29 29 30 30 31 33 34 35 36 37 36 36 36 35 34 35 35 37 39 40 41
63 57 53 50 48 47 44 43 44 43 41 38 35 33 31 29 30 30 28 27 26 27 28 28 30 32 33 33 34 36 38 38 38 37 36 35 35 34 34 36 36 36
66 58 53 50 48 44 42 40 40 42 41 37 34 33 32 31 30 29 27 26 25 26 27 28 29 32 34 36 38 39 39 39 38 37 37 35 35 34 34 35 35 34
66 59 53 50 49 47 44 41 40 41 39 36 35 34 33 30 28 27 26 25 26 26 26 28 30 33 34 37 39 40 40 40 38 38 37 35 33 33 34 35 35 35
67 63 58 55 54 53 50 47 45 44 41 39 37 36 33 30 28 27 26 26 26 26 27 29 32 33 32 33 34 36 36 36 36 37 37 36 35 33 34 35 36 36
68 67 64 61 59 56 54 52 50 50 49 45 41 38 34 31 29 29 28 26 26 27 28 29 31 31 30 29 30 31 32 34 35 35 36 38 40 40 40 38 37 38
69 69 67 66 64 61 59 56 55 55 54 50 46 42 39 35 33 31 29 27 26 27 28 29 29 28 27 28 29 30 33 36 38 39 41 43 45 47 46 44 43 43
69 70 70 70 68 67 65 62 61 62 61 57 51 46 43 40 38 34 30 28 28 27 28 28 27 26 26 28 29 30 34 37 41 45 48 49 49 49 49 48 48 48
69 70 72 72 71 71 70 69 69 67 63 59 54 49 48 45 41 35 31 30 29 28 27 26 25 23 24 25 27 30 35 41 44 47 49 50 51 51 52 52 51 52
68 70 72 73 72 72 72 71 70 66 61 59 57 56 55 50 44 38 34 32 31 28 26 25 23 21 21 24 26 30 36 44 48 50 51 52 52 53 55 55 54 56
68 69 70 71 71 72 72 70 68 64 60 59 59 59 56 50 46 42 37 34 33 32 32 29 25 24 26 28 31 34 40 48 53 55 57 57 57 57 58 58 58 59
66 67 68 69 68 70 71 70 68 65 62 59 57 57 56 54 50 47 44 41 39 40 41 35 30 33 37 38 39 43 49 55 59 60 61 62 62 63 63 63 63 64
63 63 64 65 66 67 68 67 66 65 63 61 59 57 56 54 51 48 46 46 46 47 46 42 39 43 47 48 49 52 57 61 62 63 64 64 65 67 67 68 68 68
59 60 60 61 62 63 63 62 63 62 62 62 61 58 55 53 50 48 46 46 46 46 46 47 48 51 55 57 58 60 62 63 64 65 65 65 66 67 68 69 70 71
56 57 57 57 59 59 59 59 59 59 59 59 60 59 58 56 54 53 50 48 47 45 45 47 50 53 57 61 64 66 66 67 69 69 69 69 68 68 69 70 71 72
54 55 54 55 56 56 56 57 57 57 57 58 59 60 60 60 59 58 56 54 52 51 50 51 52 55 58 62 64 67 68 70 72 72 72 72 71 71 72 72 73 74

ECMWFNIL_850_rhum_042.txt.gz
RH
69 70 71 70 67 64 63 60 54 50 50 49 46 42 40 40 42 44 45 45 45 44 43 42 42 43 46 47 48 52 57 62 62 62 62 62 64 67 70 72 72 71
69 70 71 71 68 65 63 61 57 52 50 50 48 46 44 42 42 43 44 46 46 45 44 45 43 41 42 45 47 48 52 57 59 60 61 60 62 65 67 70 72 73
68 69 70 69 65 61 60 59 58 55 52 52 51 49 47 44 43 43 44 45 46 47 46 47 45 42 42 45 47 46 47 52 57 59 59 59 60 61 63 67 70 72
68 68 67 65 62 60 60 61 59 56 54 51 50 50 49 47 45 44 44 44 44 46 46 46 45 43 43 45 47 46 45 48 52 56 58 57 59 60 60 63 66 68
66 68 67 65 63 63 64 64 61 58 55 50 48 49 50 50 48 44 43 42 41 42 43 43 43 42 42 44 45 46 45 45 47 51 53 53 56 57 58 59 60 62
67 68 68 66 65 65 65 62 61 60 57 53 51 50 50 51 50 47 44 42 40 40 39 39 39 39 40 41 43 44 44 44 45 46 47 48 50 52 54 56 55 55
67 67 68 67 66 66 64 61 62 62 59 58 56 52 50 51 50 48 45 43 42 40 38 37 37 38 39 40 41 42 43 44 45 45 46 46 47 49 50 50 50 50
66 67 67 67 66 65 63 62 62 61 61 62 59 53 50 49 48 47 45 44 42 41 39 37 36 36 39 40 41 40 42 44 44 45 46 46 47 46 46 47 47 46
65 66 66 65 65 64 62 60 59 59 61 60 56 51 49 46 44 43 43 43 42 41 39 36 34 35 37 38 39 38 39 39 40 41 42 43 43 41 40 41 41 41
65 65 66 64 63 63 61 58 57 57 58 56 53 51 47 44 42 42 42 41 40 38 36 34 31 32 34 35 36 36 35 35 35 36 38 38 38 36 36 36 35 35
65 65 65 63 62 61 60 58 57 57 54 52 51 49 46 43 43 43 42 38 34 32 31 30 28 29 31 33 34 34 34 34 33 33 34 35 35 34 33 33 32 31
65 64 62 61 61 60 60 59 58 56 53 50 49 48 46 44 42 42 40 35 29 27 26 26 26 27 29 30 31 33 34 34 33 32 31 31 32 32 31 31 31 30
62 61 60 59 59 59 59 59 57 55 52 49 47 47 46 44 42 40 36 32 28 26 25 25 25 26 27 28 29 30 32 33 32 31 29 29 30 29 30 30 30 30
59 59 59 58 58 58 58 58 57 56 53 50 49 48 45 42 41 40 36 33 30 28 26 26 26 26 26 26 27 27 29 29 29 29 28 28 28 28 29 29 29 30
58 58 58 58 58 59 59 59 58 57 54 53 52 48 44 42 41 41 40 37 34 31 30 29 28 26 24 24 25 25 26 26 26 27 27 27 27 27 27 28 28 29
58 58 58 58 58 58 59 60 59 58 57 55 53 49 47 45 43 41 40 38 36 34 33 32 30 27 24 23 23 23 23 24 24 25 25 26 26 26 26 27 28 29
59 59 59 59 59 59 60 60 61 61 60 57 54 52 50 48 46 42 38 36 36 35 35 34 31 26 23 23 22 22 23 23 23 24 24 25 25 26 26 27 28 30
60 61 61 60 59 59 60 61 62 63 62 60 57 54 52 50 47 42 37 36 36 35 35 33 30 26 25 24 23 23 23 23 24 24 25 25 26 26 27 28 30 32
61 61 61 60 58 58 59 61 63 64 64 63 60 55 53 52 48 43 38 37 37 36 34 33 30 27 26 26 25 24 24 24 25 26 26 27 28 29 30 31 33 35
62 62 60 59 58 58 59 61 63 64 64 64 63 61 59 56 50 44 40 37 36 35 34 33 31 29 28 29 27 26 26 28 28 30 31 32 32 32 33 33 35 38
63 62 60 59 59 59 61 62 63 64 65 66 67 67 65 60 54 50 45 40 37 35 34 33 31 30 30 31 30 30 31 33 34 35 36 35 35 35 35 34 36 41
62 61 60 60 61 62 63 63 64 64 66 68 69 70 70 67 65 62 55 47 44 43 41 35 30 30 31 31 31 34 36 38 38 38 37 35 34 34 35 36 39 45
59 59 59 60 61 63 64 63 64 65 66 68 70 71 71 71 70 68 62 56 53 50 45 36 29 28 30 31 32 35 38 39 39 38 36 35 34 35 37 41 44 49
56 56 57 58 60 61 62 62 63 65 66 68 69 70 71 71 71 71 69 67 63 58 52 47 39 35 35 36 37 39 41 42 41 40 39 39 39 41 43 46 49 53
54 54 55 57 58 59 59 61 62 64 65 67 69 69 69 70 72 73 72 71 70 67 65 64 59 52 49 49 48 49 50 50 50 49 48 48 48 49 50 52 56 59
54 56 56 58 58 57 58 60 61 64 65 67 69 69 69 71 72 73 72 71 71 71 70 70 68 63 60 59 58 59 58 58 59 58 57 57 58 58 59 61 63 65

ECMWFNIL_850_rhum_045.txt.gz
RH
64 62 61 59 58 58 53 46 43 43 44 46 48 48 47 45 44 43 44 47 50 54 55 56 57 60 62 60 56 54 52 55 60 65 67 65 63 63 64 66 69 71
65 64 64 63 61 59 55 50 48 47 47 48 49 49 49 48 46 44 44 45 48 51 52 52 53 55 59 59 57 54 51 51 53 57 62 62 62 62 62 65 68 69
67 66 66 65 61 59 57 55 52 50 51 52 52 51 50 49 48 45 44 45 46 49 50 51 51 52 55 57 58 57 52 50 50 51 55 59 61 61 61 62 65 66
66 67 66 65 62 60 59 58 55 54 55 54 52 51 50 49 49 48 46 45 46 47 49 49 50 51 53 55 58 59 57 53 51 48 50 53 56 57 58 60 60 62
64 65 65 65 64 62 61 60 58 56 55 53 52 52 51 50 50 50 49 47 46 46 47 48 49 51 52 54 56 58 58 56 52 49 47 48 49 51 53 55 56 57
63 64 64 64 64 64 63 61 58 55 53 52 52 52 51 51 51 51 50 48 46 45 45 45 46 49 51 54 55 55 56 55 53 50 47 45 45 45 46 48 49 51
61 62 63 64 65 65 64 62 59 55 53 53 52 51 51 51 50 50 49 48 47 45 43 43 43 45 48 51 53 52 51 52 52 49 46 44 43 43 43 45 46 47
59 62 63 63 65 65 65 64 61 57 55 55 53 52 51 51 50 49 48 47 47 44 43 42 41 42 45 47 48 48 48 49 48 46 44 43 43 44 44 45 45 45
58 60 62 62 64 64 63 64 63 60 58 56 54 53 52 51 50 49 48 47 46 44 42 42 41 40 42 42 42 44 45 46 45 44 43 43 43 42 42 43 42 40
57 58 60 61 63 62 62 62 63 63 60 56 55 55 51 49 49 49 49 48 47 44 42 41 40 38 39 39 38 39 40 42 42 42 42 41 40 39 39 39 38 36
58 58 59 60 61 61 61 61 62 63 59 55 55 53 48 45 46 47 47 47 46 44 40 39 38 37 37 36 35 35 36 37 38 38 38 38 36 36 36 36 35 34
58 58 58 59 59 60 60 60 61 61 58 54 53 50 46 43 42 42 42 42 42 40 38 36 36 36 36 35 34 34 33 34 35 35 34 34 34 34 34 33 33 33
57 56 56 56 57 58 60 60 60 60 58 54 52 50 47 43 39 38 38 38 38 37 35 33 33 34 34 33 33 32 31 31 32 33 33 32 32 32 32 31 31 30
55 54 53 55 56 57 58 59 60 60 58 56 55 52 48 44 40 37 36 36 35 33 32 31 31 32 32 30 30 29 29 29 30 31 31 31 31 31 30 29 28 28
53 53 51 52 54 55 56 58 59 59 59 59 56 52 49 47 43 40 37 36 34 32 31 31 30 29 28 26 26 26 27 27 28 28 28 29 30 29 28 28 27 27
51 51 50 51 53 54 55 56 58 58 59 59 57 55 54 50 46 43 38 35 34 32 31 31 29 26 25 24 24 25 26 26 26 26 26 27 27 27 26 26 26 26
50 50 50 50 52 53 54 55 56 57 58 59 59 60 58 53 50 47 40 35 34 33 32 31 27 24 24 23 24 24 25 25 26 25 25 26 25 25 25 24 24 25
50 51 52 51 51 51 52 53 55 57 58 59 60 61 61 59 57 52 44 40 39 35 34 32 27 24 24 23 24 24 24 25 26 25 25 25 24 24 24 24 24 24
53 54 53 52 51 51 52 53 55 56 57 58 60 61 63 63 63 59 52 47 44 39 36 34 29 24 23 23 23 23 24 25 26 26 25 24 24 24 24 25 25 25
55 54 54 52 51 51 52 53 54 56 57 59 60 62 64 64 65 64 60 54 49 43 40 38 33 26 23 24 24 23 24 25 25 26 26 25 25 25 25 25 26 27
56 55 55 53 52 52 53 53 54 55 56 58 60 62 63 64 65 66 65 61 54 50 46 41 34 29 26 25 25 25 25 26 26 27 27 26 26 25 26 26 27 29
55 55 54 53 53 54 54 54 55 55 55 57 60 62 63 64 65 67 67 64 59 57 54 43 34 31 29 27 27 28 29 29 28 29 29 28 27 26 27 28 29 32
54 54 53 53 53 54 54 54 54 54 55 57 59 62 63 64 64 65 67 65 63 62 59 48 38 34 31 29 30 31 33 33 30 31 31 29 28 28 29 30 31 32
53 52 52 52 53 53 53 54 54 54 56 57 59 61 63 63 64 66 67 67 67 66 62 55 50 44 37 36 38 39 40 39 36 37 37 33 31 30 31 32 32 32
51 51 51 52 52 52 52 53 54 55 56 58 59 61 63 64 65 67 68 69 69 69 67 64 63 58 49 45 47 49 49 49 49 50 47 41 37 36 35 36 36 37
52 52 52 53 53 53 53 54 55 56 58 60 62 63 64 66 67 68 69 70 70 71 71 70 70 68 61 57 57 58 59 60 62 62 57 50 47 47 47 48 48 50

ECMWFNIL_850_rhum_048.txt.gz
RH
55 53 50 48 48 49 50 47 43 42 41 39 37 36 39 44 53 59 52 49 56 58 56 61 65 64 65 65 65 64 61 59 58 58 61 63 65 68 71 71 71 72
56 55 55 56 58 57 54 49 44 42 41 40 39 38 39 43 48 52 51 50 55 59 57 59 65 66 65 64 64 65 64 62 59 55 56 60 62 65 68 69 69 66
59 60 62 63 64 60 55 50 45 43 45 43 40 40 40 41 46 49 51 51 52 55 55 58 63 64 62 63 63 64 64 59 54 51 52 58 60 60 62 70 75 72
60 63 64 64 66 63 58 55 50 47 50 47 41 40 42 43 46 48 50 50 50 52 53 55 59 60 61 61 60 63 64 54 49 54 59 61 59 54 54 62 71 76
59 61 63 64 67 67 63 60 57 54 53 49 42 42 44 45 46 47 48 50 51 53 53 54 54 55 58 59 59 63 61 55 54 57 57 55 50 47 49 52 56 62
59 60 62 64 66 68 66 63 60 57 55 51 47 45 46 47 47 47 47 49 51 52 52 53 52 52 54 56 60 61 58 59 61 53 49 50 47 44 48 52 51 53
57 58 60 62 64 66 67 65 61 58 56 56 55 52 49 49 48 47 46 47 48 49 51 52 49 48 50 52 58 60 55 58 59 49 47 52 50 45 46 50 51 50
55 56 58 60 62 64 66 66 63 59 57 58 59 56 52 50 49 47 46 45 46 47 49 49 47 48 49 50 55 57 53 53 51 44 43 47 47 44 42 45 47 46
53 55 57 58 60 63 65 66 63 60 59 59 59 57 53 49 49 47 45 44 45 46 46 46 47 48 49 48 49 51 49 49 46 41 40 41 42 43 42 45 50 49
51 54 56 56 58 62 65 68 68 66 62 57 57 61 57 49 46 47 45 43 43 44 44 45 45 45 46 46 44 44 44 44 43 39 38 39 40 40 42 48 54 53
49 53 56 55 56 63 68 70 74 75 68 57 54 62 62 51 44 45 44 42 42 42 42 42 43 43 43 44 42 40 39 38 38 38 37 38 38 38 40 43 46 46
47 52 57 56 54 62 71 74 75 79 76 62 52 56 61 54 45 42 42 42 41 41 43 41 42 42 41 41 42 40 37 35 36 36 35 36 37 37 37 36 36 35
45 48 53 55 54 60 71 77 76 77 79 72 56 51 58 58 49 41 39 42 41 41 44 44 43 44 41 40 41 40 36 33 33 33 33 34 35 34 34 33 33 32
46 48 48 52 54 56 64 74 78 77 80 80 64 52 55 59 54 45 38 40 42 41 43 45 45 45 43 40 38 38 36 32 29 30 31 32 32 32 33 33 32 32
50 50 47 49 53 54 55 63 72 74 76 78 66 53 53 56 58 55 45 38 39 40 41 43 44 43 41 39 35 34 33 30 28 27 28 30 31 31 31 31 31 31
52 51 47 47 50 52 52 54 61 64 65 67 61 53 52 54 58 61 56 45 38 38 40 40 40 39 36 33 32 30 30 29 27 25 26 27 28 29 30 29 29 29
50 48 47 47 47 49 51 51 55 58 58 59 58 56 54 54 56 59 62 60 50 42 40 37 34 33 31 28 28 27 27 27 26 24 24 25 26 27 28 27 27 27
47 46 46 46 46 48 49 50 52 56 57 57 58 57 56 56 58 57 58 63 63 57 51 43 33 28 26 25 24 24 25 26 25 25 24 25 25 25 25 25 26 25
46 46 46 46 46 46 47 49 51 53 55 56 57 58 58 57 58 58 57 59 63 61 56 50 41 30 23 23 22 22 24 24 25 25 25 24 24 24 24 24 23 23
46 45 46 47 46 47 47 48 49 51 53 56 57 58 58 58 57 59 58 58 59 57 51 49 46 34 24 23 23 22 23 24 25 25 25 25 25 23 23 23 22 21
45 45 46 47 47 48 49 48 49 51 53 55 58 58 57 57 58 58 58 57 58 57 52 47 42 33 25 23 23 23 24 25 25 26 26 25 25 24 23 23 22 20
43 45 46 48 49 49 49 49 50 51 52 53 57 61 61 58 56 57 59 58 56 56 56 50 39 31 27 23 22 24 25 26 27 27 27 25 25 24 23 22 22 21
43 44 45 47 49 49 50 50 50 50 51 52 54 60 67 63 56 55 57 58 56 56 55 50 41 34 29 24 23 24 26 27 28 27 27 26 24 23 23 23 22 21
43 43 45 47 48 49 49 50 51 50 50 51 51 55 64 64 57 55 56 56 56 56 55 50 44 40 33 28 27 28 28 30 31 31 30 27 24 24 23 23 22 21
43 43 45 47 48 49 50 50 51 51 49 50 51 51 57 61 59 58 60 60 58 58 56 52 49 49 43 34 32 33 33 34 36 37 36 31 27 26 25 24 23 22
44 44 46 48 50 51 52 53 53 53 53 52 51 52 54 57 60 63 66 67 67 66 62 56 55 57 52 42 37 37 38 40 42 44 42 35 30 29 29 28 25 23